Regional Weather Roundup
Issued by NWS Burlington, VT

Home | Current Version | Previous Version | Text Only | Print | Product List | Glossary On
Versions: 1 2 3 4 5 6 7 8 9 10 11 12 13 14 15 16 17 18 19 20 21 22 23 24 25 26 27 28 29 30 31 32 33 34 35 36 37 38 39 40 41 42 43 44 45 46 47 48 49 50
000
ASUS41 KBTV 291810
RWRBTV
VERMONT REGIONAL WEATHER ROUNDUP
NATIONAL WEATHER SERVICE BURLINGTON VT
200 PM EDT FRI JUL 29 2016

NOTE: "FAIR" INDICATES FEW OR NO CLOUDS BELOW 12,000 FEET WITH NO
SIGNIFICANT WEATHER AND/OR OBSTRUCTIONS TO VISIBILITY.

* THESE REPORTS ARE NOT UNDER NWS QUALITY CONTROL AND/OR DO NOT
  REPORT WEATHER SUCH AS PRECIPITATION AND FOG.

VTZ001>019-291900-
_____VERMONT_____


CITY           SKY/WX    TMP DP  RH WIND       PRES   REMARKS
BURLINGTON     FAIR      82  60  47 N12       29.92S
6HR MIN TEMP:  69; 6HR MAX TEMP:  82;

MONTPELIER     FAIR      78  59  51 N8        29.96F
6HR MIN TEMP:  65; 6HR MAX TEMP:  80;

MORRISVILLE    FAIR      81  53  37 VRB3      29.93F
6HR MIN TEMP:  65; 6HR MAX TEMP:  81;

ST. JOHNSBURY*   N/A     83  57  41 MISG      29.89F
6HR MIN TEMP:  66; 6HR MAX TEMP:  83;

LYNDONVILLE*   FAIR      77  54  43 W7        29.95F
6HR MIN TEMP:  66; 6HR MAX TEMP:  78;

MIDDLEBURY*    FAIR      83  55  37 NW10G17   29.90F
6HR MIN TEMP:  66; 6HR MAX TEMP:  84;

RUTLAND*       PTSUNNY   80  63  55 NW7       29.90F
6HR MIN TEMP:  66; 6HR MAX TEMP:  81;

SPRINGFIELD    FAIR      83  61  47 VRB6      29.88F
6HR MIN TEMP:  68; 6HR MAX TEMP:  84;

HIGHGATE*      FAIR      78  62  56 N10       29.94S
6HR MIN TEMP:  64; 6HR MAX TEMP:  78;

NEWPORT*       FAIR      78  54  43 N5        29.94F HAZE
6HR MIN TEMP:  68; 6HR MAX TEMP:  79;

BENNINGTON     PTSUNNY   79  66  64 VRB3      29.89S
6HR MIN TEMP:  68; 6HR MAX TEMP:  82; 6HR PCP: TRACE;


_____LAKE CHAMPLAIN_____


CITY           SKY/WX    TMP DP  RH WIND       PRES   REMARKS
BURTON ISLAND*   N/A     79  63  57 NW1         N/A
COLCHESTER RF*   N/A     75  66  73 NE10        N/A
DIAMOND ISL*     N/A     73  64  73 N16         N/A

$$

NYZ007-026>031-035-052-083-087-291900-
_____NORTHERN NEW YORK_____


CITY           SKY/WX    TMP DP  RH WIND       PRES   REMARKS
PLATTSBURGH    MOSUNNY   78  65  63 NE12      29.92F
6HR MIN TEMP:  68; 6HR MAX TEMP:  78;

SARANAC LAKE   PTSUNNY   77  52  41 N8        29.96F
6HR MIN TEMP:  65; 6HR MAX TEMP:  79;

MASSENA        SUNNY     77  59  53 NW9       29.96F
6HR MIN TEMP:  68; 6HR MAX TEMP:  78;

OGDENSBURG*    SUNNY     81  57  44 NE6       29.96S
POTSDAM*       SUNNY     79  63  57 N7        29.96S
WATERTOWN      MOSUNNY   86  53  32 N14       29.93S
6HR MIN TEMP:  67; 6HR MAX TEMP:  86;

FT DRUM        MOSUNNY   81  57  44 NE13      29.94S
                                      6HR PCP: TRACE;

ALBANY         MOSUNNY   84  65  52 N7        29.86F
6HR MIN TEMP:  70; 6HR MAX TEMP:  85;

GLENS FALLS    SUNNY     84  60  44 NE12      29.88F
6HR MIN TEMP:  69; 6HR MAX TEMP:  84;


$$
NHZ002-005-011-291900-
_____NEW HAMPSHIRE_____


CITY           SKY/WX    TMP DP  RH WIND       PRES   REMARKS
LEBANON        SUNNY     85  61  44 NE9G16    29.88F
6HR MIN TEMP:  69; 6HR MAX TEMP:  85; 6HR PCP:  0.02;

KEENE          PTSUNNY   81  67  62 NE7       29.86F
6HR MIN TEMP:  71; 6HR MAX TEMP:  83;

PLYMOUTH       CLOUDY    76  63  64 NW6       29.89S
6HR MIN TEMP:  67; 6HR MAX TEMP:  82;

WHITEFIELD     PTSUNNY   79  61  53 CALM      29.92F
6HR MIN TEMP:  64; 6HR MAX TEMP:  82; 6HR PCP: TRACE;


$$

_____REGIONAL QUEBEC LOCATIONS_____


CITY           SKY/WX    TMP DP  RH WIND       PRES   REMARKS
MONTREAL       PTSUNNY   79  55  44 VRB15G21  29.94S
QUEBEC CITY    PTSUNNY   75  54  46 VRB7      29.92S
SHERBROOKE     SUNNY     79  52  38 NW10      29.92F

_____REGIONAL ONTARIO LOCATIONS_____


CITY           SKY/WX    TMP DP  RH WIND       PRES   REMARKS
OTTAWA         PTSUNNY   79  55  44 VRB8G17   29.98S

______KEY______
VSB  - VISIBILITY IN MILES
WCI  - WIND CHILL INDEX
HX   - HEAT INDEX
$$
NNNN



USA.gov is the U.S. government's official web portal to all federal, state and local government web resources and services.